Regional Weather Roundup
Issued by NWS Kansas City/Pleasant Hill, MO

Home | Current Version | Previous Version | Graphics & Text | Print | Product List | Glossary Off
Versions: 1 2 3 4 5 6 7 8 9 10 11 12 13 14 15 16 17 18 19 20 21 22 23 24 25 26 27 28 29 30 31 32 33 34 35 36 37 38 39 40 41 42 43 44 45 46 47 48 49 50

203
ASUS43 KEAX 220604
RWREAX

WEATHER ROUNDUP FOR EASTERN KANSAS AND NORTHWEST MISSOURI
NATIONAL WEATHER SERVICE KANSAS CITY/PLEASANT HILL MO
100 AM CDT FRI MAY 22 2015

KSZ040-057-103>105-MOZ028-029-037-043-220700-
...KANSAS CITY METROPOLITAN AREA...

CITY           SKY/WX    TMP DP  RH WIND       PRES   REMARKS
K.C. INTL      MOCLDY    52  45  77 SW7       30.23R
6HR MIN TEMP:  52; 6HR MAX TEMP:  67;

K.C. DOWNTOWN  CLEAR     55  46  71 SW3       30.23R
6HR MIN TEMP:  54; 6HR MAX TEMP:  68;

LEES SUMMIT    CLEAR     52  44  74 SW7       30.24R
6HR MIN TEMP:  51; 6HR MAX TEMP:  67; 6HR PCP: TRACE;

OLATHE - IXD   CLEAR     53  46  77 SW7       30.25R
6HR MIN TEMP:  52; 6HR MAX TEMP:  65;

OLATHE - OJC   CLEAR     54  46  74 SW5       30.23R
6HR MIN TEMP:  53; 6HR MAX TEMP:  66;

LAWRENCE       PTCLDY    49  47  93 CALM      30.24R

$$

MOZ001>008-011>017-020>025-030>033-038>040-044>046-053-054-220700-
...NORTHERN AND CENTRAL MISSOURI...

CITY           SKY/WX    TMP DP  RH WIND       PRES   REMARKS
ST. JOSEPH     MOCLDY    54  48  80 S3        30.21S
6HR MIN TEMP:  53; 6HR MAX TEMP:  69;

MOSBY          PTCLDY    50  50 100 CALM      30.22S
WARRENSBURG    CLEAR     52  45  76 SW3       30.22S
WHITEMAN AFB   CLEAR     52  45  77 SW7       30.22R
6HR MIN TEMP:  51; 6HR MAX TEMP:  65;

CLINTON        NOT AVBL
SEDALIA        PTCLDY    54  45  71 SW8       30.23R
6HR MIN TEMP:  54; 6HR MAX TEMP:  66;

WARSAW         NOT AVBL
CHILLICOTHE      N/A     56  45  66 VRB3      30.20R
6HR MIN TEMP:  53; 6HR MAX TEMP:  70;

KIRKSVILLE     CLEAR     55  46  71 W6        30.17R
6HR MIN TEMP:  55; 6HR MAX TEMP:  68;


$$

MOZ041-047>049-056>058-063>065-088>090-097-220700-
...EASTERN AND SOUTHERN MISSOURI...

CITY           SKY/WX    TMP DP  RH WIND       PRES   REMARKS
ST. LOUIS INTL CLEAR     54  43  66 SW5       30.18S
6HR MIN TEMP:  54; 6HR MAX TEMP:  65;

SPIRIT OF STL  CLEAR     48  45  89 CALM      30.18S
COLUMBIA       CLEAR     52  44  74 SW6       30.20R
JEFFERSON CITY CLEAR     50  46  86 CALM      30.20S
ROLLA          CLEAR     45  42  89 SW8       30.19F
OSAGE BEACH    PTCLDY    45  43  93 CALM      30.22S
SPRINGFIELD    CLEAR     47  43  86 CALM      30.23S
BRANSON        CLEAR     48  45  87 CALM      30.24S
JOPLIN         CLEAR     46  45  96 CALM      30.23F FOG
WEST PLAINS    CLEAR     44  40  85 CALM      30.24S

$$

IAZ060-094-KSZ022-034>040-054-083-096-NEZ052-066-093-220700-
...KANSAS...SOUTHEAST NEBRASKA AND IOWA...

CITY           SKY/WX    TMP DP  RH WIND       PRES   REMARKS
TOPEKA         PTCLDY    52  49  89 CALM      30.24S
6HR MIN TEMP:  52; 6HR MAX TEMP:  68;

MANHATTAN      PTCLDY    49  46  90 CALM      30.24S
EMPORIA        CLEAR     50  44  80 CALM      30.23F
CHANUTE        CLEAR     48  46  93 CALM      30.23F
WICHITA        MOCLDY    53  46  77 E5        30.20F
OMAHA          PTCLDY    60  40  47 W5        30.19R
LINCOLN        PTCLDY    55  41  59 SW6       30.23R
FALLS CITY     MOCLDY    54  44  69 SW9       30.21R
LAMONI         CLEAR     58  43  57 W12       30.17R
DES MOINES     CLEAR     56  42  59 W5        30.14R

$$




USA.gov is the U.S. government's official web portal to all federal, state and local government web resources and services.